SCP
0 0 0 0 0 0 0 0 0 0 0 0 0 0 0 0 0 0 0 0 1 1 1 0 0 0 0 0 0 0 0 0 0 0 0 0 0 0 0 0 0 0 0
0 0 0 0 0 0 0 0 0 0 0 0 0 0 0 0 0 0 0 0 1 0 0 0 0 0 0 0 0 0 0 0 0 0 0 0 0 0 0 0 0 0 0
0 0 1 1 0 0 0 0 0 0 0 0 0 0 0 0 0 0 0 0 0 0 0 0 0 0 0 0 0 0 0 0 0 0 0 0 0 0 0 0 0 0 0
0 0 1 1 1 1 0 0 0 0 0 0 0 0 0 0 0 0 0 0 0 0 0 0 0 0 0 0 0 0 0 0 0 0 0 0 0 0 0 0 0 0 0
0 0 1 1 1 1 1 0 0 0 0 0 0 0 0 0 0 0 0 0 0 0 0 0 0 0 0 0 0 0 0 0 0 0 0 0 0 0 0 0 0 0 0
0 0 1 1 1 1 1 1 1 1 1 1 0 0 0 0 0 0 0 0 0 0 0 0 0 0 0 0 0 0 0 0 0 0 0 0 0 0 0 0 0 0 0
0 0 1 1 1 1 1 1 1 1 1 1 1 1 1 0 0 0 0 0 0 0 0 0 0 0 0 0 0 0 0 0 0 0 0 0 0 0 0 0 0 0 0
0 0 1 1 1 1 1 1 1 1 1 1 1 1 1 0 0 0 0 0 0 0 0 0 0 0 0 0 0 0 0 0 0 0 0 0 0 0 0 0 0 0 0
0 0 1 1 1 1 1 1 1 1 1 1 1 1 1 0 0 0 0 0 0 0 0 0 0 0 0 0 0 0 0 0 0 0 0 0 0 0 0 0 0 0 0
0 0 1 1 1 1 1 1 1 1 1 1 1 0 0 0 0 0 0 0 0 0 0 0 0 0 0 0 0 0 0 0 0 0 0 0 0 0 0 0 0 0 0
0 0 1 1 1 1 1 0 0 0 0 0 0 0 0 0 0 0 0 0 0 0 0 0 0 0 0 0 0 0 0 0 0 0 0 0 0 0 0 0 0 0 0
0 0 0 1 1 1 1 0 1 1 0 0 0 0 0 0 0 0 0 0 0 0 0 0 0 0 0 0 0 0 0 0 0 0 0 0 0 0 0 0 0 0 0
0 0 0 0 1 1 1 1 1 1 1 0 0 0 0 0 0 0 0 0 0 0 0 0 0 0 0 0 0 0 0 0 0 0 0 0 0 0 0 0 0 0 0
0 0 0 0 0 1 1 1 1 1 1 0 0 0 0 0 0 0 0 0 0 0 0 0 0 0 0 0 0 0 0 0 0 0 0 0 0 0 0 0 0 0 0
0 0 0 0 0 0 1 1 1 0 0 0 0 0 0 0 0 0 0 0 0 0 0 0 0 0 0 0 0 0 0 0 0 0 0 0 0 0 0 0 0 0 0
0 0 0 0 0 0 0 0 0 0 0 0 0 0 0 0 0 0 0 0 0 0 0 0 0 0 0 0 0 0 0 0 0 0 0 0 0 0 0 0 0 0 0
0 0 0 0 0 0 0 0 0 0 0 0 0 0 0 0 0 0 0 0 0 0 0 0 0 0 0 0 0 0 0 0 0 0 0 0 0 0 0 0 0 0 0
0 0 0 0 0 0 0 0 0 0 0 0 0 0 0 0 0 0 0 0 0 0 0 0 0 0 0 0 0 0 0 0 0 0 0 0 0 0 0 0 0 0 0
0 0 0 0 0 0 0 0 0 0 0 0 0 0 0 0 0 0 0 0 0 0 0 0 0 0 0 0 0 0 0 0 0 0 0 0 0 0 0 0 0 0 0
0 0 0 0 0 0 0 0 0 0 0 0 0 0 0 0 0 0 0 0 0 0 0 0 0 0 0 0 0 0 0 0 0 0 0 0 0 0 0 0 0 0 0
0 0 0 0 0 0 0 0 0 0 0 0 0 0 0 0 0 0 0 0 0 0 0 0 0 0 0 0 0 0 0 0 0 0 0 0 0 0 0 0 0 0 0
0 0 0 0 0 0 0 0 0 0 0 0 0 0 0 0 0 0 0 0 0 0 0 0 0 0 0 0 0 0 0 0 0 0 0 0 0 0 0 0 0 0 0
0 0 0 0 0 0 0 0 0 0 0 0 0 0 0 0 0 0 0 0 0 0 0 0 0 0 0 0 0 0 0 0 0 0 0 0 0 0 0 0 0 0 0
0 0 0 0 0 0 0 0 0 0 0 0 0 0 0 0 0 0 0 0 0 0 0 0 0 0 0 0 0 0 0 0 0 0 0 0 0 0 0 0 0 0 0
0 0 0 0 0 0 0 0 0 0 0 0 0 0 0 0 0 0 0 0 0 0 0 0 0 0 0 0 0 0 0 0 0 0 0 0 0 0 0 0 0 0 0
0 0 0 0 0 0 0 0 0 0 0 0 0 0 0 0 0 0 0 0 0 0 0 0 0 0 0 0 0 0 0 0 0 0 0 0 0 0 0 0 0 0 0
Wind_Speed
7 14 17 15 15 14 13 12 11 11 11 11 10 10 9 8 7 6 6 8 9 10 11 11 11 10 10 10 10 10 9 9 9 10 11 12 12 12 13 12 9 8 12
8 15 17 15 16 15 13 12 12 11 11 11 10 9 9 8 8 7 8 9 10 10 10 9 9 9 9 9 9 9 8 8 6 5 7 10 11 11 12 13 12 8 13
10 15 15 14 15 15 13 12 11 11 11 10 10 10 9 9 9 9 9 9 9 8 8 7 7 8 8 8 8 8 8 7 7 5 1 3 7 11 11 11 11 12 13
10 14 14 14 15 16 14 13 12 12 11 11 11 10 10 10 9 9 8 7 8 7 7 7 7 7 8 8 8 7 7 7 8 9 3 4 6 10 10 11 11 12 12
8 12 13 15 15 16 15 14 13 12 11 12 12 11 11 9 8 7 6 6 6 6 6 6 7 7 7 7 7 7 6 6 8 8 4 7 6 9 11 11 11 11 11
7 9 13 17 15 16 15 15 14 13 12 12 12 12 11 10 8 6 5 5 6 5 5 6 7 7 7 6 6 6 6 7 8 4 6 7 6 9 10 10 10 10 10
7 7 13 16 15 15 15 15 14 13 12 12 13 12 11 10 8 6 5 5 6 5 5 6 6 6 6 6 6 6 6 9 4 5 6 7 6 9 8 8 8 8 9
7 7 11 14 13 13 14 14 14 13 12 13 13 12 12 11 9 8 7 6 6 5 6 6 6 6 6 6 6 5 6 7 4 5 6 6 7 6 6 6 6 6 7
7 7 7 10 11 10 11 12 12 12 12 12 13 12 11 10 9 8 7 7 7 7 7 7 7 7 6 6 6 5 5 7 4 3 6 5 5 4 4 4 4 4 5
5 6 6 8 9 9 8 11 12 12 12 12 12 11 10 9 9 8 7 7 8 8 9 8 8 7 7 6 5 3 5 6 4 5 4 4 5 3 3 3 3 3 4
5 6 6 7 9 9 8 11 11 11 11 11 10 11 10 6 6 6 7 8 8 9 10 10 9 8 7 5 3 1 4 2 4 4 4 5 4 2 2 2 2 4 5
8 7 6 7 7 8 8 7 7 7 7 7 6 7 5 4 5 7 9 10 9 10 10 10 10 9 6 3 2 2 1 1 2 3 3 5 3 1 2 2 3 4 5
9 10 9 8 8 7 5 5 5 5 5 7 7 8 6 4 3 4 4 5 6 8 5 7 6 3 3 3 2 2 1 1 2 3 3 4 4 1 2 3 4 5 6
8 10 12 11 8 8 6 5 5 4 4 5 6 7 6 4 4 4 4 4 4 3 4 4 3 3 3 3 3 3 2 2 2 2 2 3 4 3 2 4 5 6 7
8 7 11 12 11 9 8 6 6 5 5 5 5 6 7 5 5 4 4 5 5 4 5 5 4 4 3 3 3 3 3 3 2 2 2 3 5 3 2 5 6 7 8
8 8 7 11 11 9 8 7 6 6 6 6 6 7 8 6 5 5 5 5 5 5 5 5 5 5 3 3 3 3 3 3 2 1 3 3 6 7 3 5 6 7 8
5 6 7 8 10 10 9 8 5 5 6 6 6 8 9 7 7 6 5 5 5 5 6 5 5 4 4 4 3 3 2 2 2 1 1 2 3 8 9 7 6 7 7
4 1 5 5 7 8 8 7 5 4 5 5 5 6 9 9 8 7 6 6 6 5 5 5 5 5 4 4 3 3 2 2 1 1 1 1 3 4 7 10 9 7 7
12 9 4 2 5 5 6 5 4 4 4 4 4 5 7 8 7 6 6 6 7 6 5 6 5 5 5 5 4 3 3 3 2 1 1 2 3 4 4 7 8 7 6
13 13 11 7 1 3 2 2 2 2 2 2 3 4 6 6 6 5 5 6 7 6 6 6 7 5 5 5 5 3 2 3 2 2 2 2 3 3 4 4 3 3 4
14 14 13 11 7 3 2 2 1 1 1 1 2 3 5 5 6 5 4 5 6 7 7 8 6 7 5 5 5 2 0 1 3 3 3 3 3 3 4 4 3 3 2
14 13 13 13 11 7 3 2 2 1 1 1 2 2 3 4 5 5 5 4 5 5 7 8 7 6 4 6 6 4 2 2 4 4 4 4 5 4 4 5 4 4 3
14 14 13 14 13 11 8 4 4 4 3 3 2 1 1 3 3 4 5 4 5 6 6 8 9 10 7 6 5 7 7 7 3 3 5 5 5 4 4 5 6 5 5
12 11 12 14 14 13 10 7 5 3 2 2 1 0 1 2 3 3 4 5 5 5 6 7 8 7 6 7 5 4 4 6 6 3 3 4 6 6 6 6 6 6 6
10 10 10 12 13 13 12 11 8 5 4 3 3 3 1 1 3 3 3 4 5 5 6 7 7 8 6 6 6 4 3 2 3 6 4 4 5 6 6 7 6 6 6
9 9 10 11 12 12 12 12 11 9 7 6 5 3 2 1 2 4 4 4 5 4 6 7 7 9 8 7 6 5 5 6 6 5 5 4 5 6 6 6 8 8 7
Wind_Direction
145 145 157 160 159 157 154 151 146 143 140 138 135 131 125 119 113 104 99 100 99 95 90 82 76 70 66 62 58 56 55 56 64 75 81 81 74 66 56 50 65 58 58
144 146 158 161 162 161 159 157 154 152 151 150 147 142 137 131 123 114 106 99 95 90 86 82 78 72 67 63 58 53 48 42 42 63 91 90 81 71 66 61 60 63 62
139 145 160 161 163 163 162 161 160 161 161 160 157 151 143 133 123 113 104 99 96 91 87 85 80 74 67 62 58 53 43 26 1 344 329 120 94 81 73 69 67 65 63
140 147 166 163 165 165 165 165 167 170 171 168 162 155 144 134 126 119 107 100 100 97 93 89 84 74 66 62 58 52 39 16 346 330 328 107 95 90 81 74 69 66 64
146 153 165 162 168 168 169 170 172 176 178 176 169 159 150 143 138 130 119 110 108 104 100 94 87 78 68 62 58 50 31 2 335 324 18 66 75 89 87 80 74 69 66
154 158 159 164 172 173 173 175 178 182 185 183 174 166 159 153 148 144 141 133 123 116 108 101 93 84 74 66 60 48 23 356 329 359 44 60 63 76 82 82 78 72 69
159 161 157 169 177 179 179 180 183 187 190 184 177 170 163 159 156 156 165 160 144 135 122 112 101 91 80 71 63 47 18 349 11 39 50 58 53 65 68 73 73 71 67
161 162 154 174 178 183 184 186 188 192 191 183 176 171 167 165 165 168 176 175 164 154 140 125 113 103 91 80 68 51 20 359 15 53 68 55 45 67 64 62 66 68 66
162 162 156 175 185 189 191 191 192 194 188 181 176 173 170 170 169 170 173 178 174 167 152 137 128 118 105 89 74 50 14 355 45 41 74 53 33 70 69 61 62 70 72
168 168 179 173 186 192 194 197 195 191 185 178 175 171 167 166 165 162 166 177 178 170 157 148 141 131 114 97 81 44 354 348 43 51 63 45 36 64 71 67 72 81 83
192 181 194 190 186 188 189 194 192 188 183 175 172 168 161 161 161 159 174 177 179 167 159 156 150 133 121 112 107 6 336 32 50 64 55 27 31 61 81 88 97 101 97
208 200 199 206 196 189 190 183 184 186 182 180 172 166 170 176 176 171 184 173 170 156 158 161 151 142 148 151 177 242 313 39 75 90 68 24 13 52 120 124 122 117 110
204 196 199 203 201 195 191 182 180 184 182 188 185 171 171 183 175 159 144 154 151 148 148 146 141 175 191 148 165 143 70 44 63 83 79 26 357 320 156 146 138 128 123
217 197 192 193 196 196 191 191 181 179 182 186 188 177 169 177 172 156 146 155 154 155 153 144 161 179 149 124 112 108 87 62 62 79 90 26 354 324 176 154 148 139 131
228 214 188 187 192 191 192 191 189 186 182 180 179 183 176 174 172 166 163 163 165 163 158 151 160 160 154 157 149 131 112 91 77 74 104 41 12 349 182 156 144 137 127
218 220 198 186 189 189 193 195 192 187 180 179 182 186 182 173 169 168 171 166 166 161 154 152 160 157 163 152 145 127 123 118 101 72 124 90 45 37 70 134 140 133 126
217 209 205 192 185 189 195 197 196 192 183 182 182 183 182 175 170 169 171 169 167 154 150 150 155 151 155 152 150 134 114 100 120 102 96 120 84 56 61 78 103 121 122
2 255 207 187 181 188 192 194 195 195 192 185 180 178 180 179 172 169 171 173 166 152 150 158 157 154 160 157 154 152 134 109 119 136 111 92 100 86 72 79 80 95 104
16 8 360 186 180 184 186 183 188 190 195 184 177 174 177 181 180 171 173 170 164 156 160 168 164 158 161 162 153 148 147 153 160 207 180 117 94 100 98 91 82 81 97
20 16 12 12 100 149 147 157 172 192 192 178 170 167 168 178 185 175 171 172 164 161 170 173 171 171 157 153 133 126 144 153 169 203 189 134 122 127 132 126 104 90 108
23 20 16 12 14 64 93 116 141 201 195 176 156 154 163 169 181 183 175 177 172 176 181 175 166 165 153 139 108 102 17 190 209 203 185 162 171 166 149 155 160 148 152
23 20 21 16 13 26 51 77 85 71 82 136 125 130 151 164 177 185 185 185 181 180 187 186 171 163 160 164 142 133 180 269 258 211 192 187 185 174 176 181 176 172 172
25 22 23 19 19 19 26 41 50 41 25 20 33 88 150 163 180 192 198 193 188 188 201 202 190 177 173 192 186 156 162 201 206 222 211 194 186 182 189 185 181 187 179
23 20 27 25 23 18 20 30 40 41 23 353 348 143 162 179 198 208 212 213 201 197 208 213 207 205 173 183 221 222 173 151 153 185 239 216 198 194 192 191 187 190 183
24 23 26 30 29 22 21 24 27 24 12 2 8 17 25 210 214 225 230 230 225 211 213 218 213 215 211 193 194 185 189 192 162 147 186 207 216 213 198 190 184 188 186
28 29 28 31 31 25 25 24 23 18 9 5 1 350 327 270 229 224 237 241 242 234 221 221 219 216 223 224 214 200 174 174 189 170 162 175 202 213 200 190 187 188 188